Weather in Ust-Kolba

Russia / Kemerovo Oblast     55°52′56″N   88°17′58″E
temp.,
°C
wind,
m/s
gust,
m/s
humid.,
%
clouds,
%
prec.,
mm/h
press.,
hPa
HPBL,
m
20 may, fri
fri2001:00+16w111792100 6.1 1006804
04:00+15wsw71480100 1.6 1008563
07:00+14sw713700 1.6 1012671
10:00+18wsw812371 0.0 10132374
13:00+20wsw9123396 0.0 10133223
16:00+21wsw811305 0.0 10123096
19:00+19wsw5103926 0.0 10121752
22:00+16ssw3949100 0.0 1012214
21 may, sat
sat2101:00+14s375973 0.3 1011108
04:00+13ssw41263100 0.0 1010324
07:00+13sw5146998 0.3 1011808
10:00+17wsw81553100 0.1 10111794
13:00+19w91334100 0.1 10122103
16:00+20w8113299 0.0 10102102
19:00+19w484663 0.0 10101159
22:00+14ese016218 0.0 101010
22 may, sun
sun2201:00+13sse22735 0.0 100915
04:00+13s22775 0.0 100712
07:00+16ese11675 0.0 100763
10:00+22e224714 0.0 1006510
13:00+26ne3234100 0.0 10041735
16:00+27ne3432100 0.0 10031962
19:00+24ne5947100 0.0 1004340
22:00+19ene61351100 0.0 1006402
23 may, mon
mon2301:00+16e6135978 0.0 1007349
04:00+15ese513688 0.0 1008263
07:00+17sw4971100 0.0 1011441
10:00+17w91067100 0.2 10151051
13:00+14w5855100 0.4 1019705
16:00+16w6742100 0.0 10211352
19:00+16sw464616 0.0 1022425
22:00+11ssw35550 0.0 102273
24 may, tue
tue2401:00+9sse226131 0.0 102211
04:00+8se226198 0.0 102218
07:00+11ese2556100 0.0 1022136
10:00+17ese453783 0.0 1020661
13:00+21e44280 0.0 10181059
16:00+23ne33278 0.0 10161460
19:00+22n2339100 0.0 101698
22:00+15ne3349100 0.0 101730